Starlink 31931

operational
NORAD ID: 59864 Int'l Des: 2024-098 Owner: SPXS Country: US Constellation: starlink
LEOCIRCULAR

About Starlink 31931

Description loading...

Live Position

Loading 3D Globe...

Upcoming Passes

Altitude History

Altitude vs Time

uPlot chart will show altitude changes over time

Two-Line Element Set

1 59864U 24098G 25303.25212391 -.00007200 00000-0 -25214-3 0 9991
2 59864 42.9975 294.9580 0001934 275.1659 84.8972 15.27609550 81893
Epoch: Oct 30, 2025 • Age: 19 hours

Current Status

Altitude 485.7 km
Velocity 7.63 km/s
Sub-Earth Point 36.36°N, 74.55°W
Launch Date May 24, 2024
Age 1.4 years
Type internet

Technical Details

Classification Payload
Mass 730.00 kg
Dry Mass 700.00 kg
Total Mass 730.00 kg
Length 0.30 m
Diameter 4.10 m
Span 29.00 m
Shape Box + pan
Manufacturer SPXS
Bus Type Starlink V2M
Phase Status In Orbit
Owner/State SPXS/US

Large Constellations

Loading constellations...